AirNav   Pilot Hours Calculator
 
 529 users online  

KMGY Dayton-Wright Brothers Airport
Dayton, Ohio, USA

GOING TO DAYTON?


FAA INFORMATION EFFECTIVE 16 JUNE 2022

Location

FAA Identifier: MGY
Lat/Long: 39-35-20.3000N 084-13-29.5000W
39-35.338333N 084-13.491667W
39.5889722,-84.2248611
(estimated)
Elevation: 956.6 ft. / 291.6 m (surveyed)
Variation: 04W (1995)
From city: 10 miles S of DAYTON, OH
Time zone: UTC -4 (UTC -5 during Standard Time)
Zip code: 45342

Airport Operations

Airport use: Open to the public
Activation date: 12/1957
Control tower: no
ARTCC: INDIANAPOLIS CENTER
FSS: DAYTON FLIGHT SERVICE STATION
NOTAMs facility: MGY (NOTAM-D service available)
Attendance: 0800-2100
Wind indicator: lighted
Segmented circle: no
Lights: ACTVT MALS RWY 20; PAPI RWY 02 & 20; MIRL RWY 02/20 - CTAF.
Beacon: white-green (lighted land airport)
Operates sunset to sunrise.

Airport Communications

CTAF/UNICOM: 122.8
WX ASOS: 118.375 (937-885-2171)
COLUMBUS APPROACH: 118.85
COLUMBUS DEPARTURE: 118.85
CLEARANCE DELIVERY: 119.4
CLASS C: 118.85
IC: 118.85
WX AWOS-3 at I68 (8 nm S): 120.55 (513-934-5500)
WX AWOS-3 at MWO (9 nm SW): 120.025 (513-422-3505)
WX AWOS-3 at I19 (12 nm NE): 118.525 (937-372-4668)
WX AWOS-3 at I66 (18 nm E): 124.175 (937-382-1376)
WX ASOS at DAY (19 nm N): PHONE 937-415-6819
WX ASOS at HAO (19 nm SW): 121.425 (513-863-6137)

Airport Services

Fuel available: 100LL JET-A JET-A+
Parking: hangars and tiedowns
Airframe service: MAJOR
Powerplant service: MAJOR
Bottled oxygen: NONE
Bulk oxygen: HIGH

Runway Information

Runway 2/20

Dimensions: 5000 x 100 ft. / 1524 x 30 m
Surface: asphalt/grooved, in good condition
Weight bearing capacity: 
Single wheel: 50.0
Double wheel: 60.0
Runway edge lights: medium intensity
RUNWAY 2  RUNWAY 20
Latitude: 39-34.956500N39-35.718747N
Longitude: 084-13.692647W084-13.289923W
Elevation: 936.2 ft.956.6 ft.
Traffic pattern: leftleft
Runway heading: 026 magnetic, 022 true206 magnetic, 202 true
Displaced threshold: no590 ft.
Declared distances: TORA:5000 TODA:5000 ASDA:4700 LDA:4700TORA:5000 TODA:5000 ASDA:5000 LDA:4410
Markings: nonprecision, in fair conditionnonprecision, in fair condition
Visual slope indicator: 2-light PAPI on left (3.00 degrees glide path)4-light PAPI on left (3.00 degrees glide path)
UNUSBL BYD 7 DEGS RIGHT OF CNTRLN.
Approach lights: MALS: 1,400 foot medium intensity approach lighting system
Runway end identifier lights: no
Touchdown point: yes, no lightsyes, no lights
Instrument approach: LOC/DME
Obstructions: none25 ft. road, 540 ft. from runway, 300 ft. right of centerline, 13:1 slope to clear

Airport Ownership and Management from official FAA records

Ownership: Publicly-owned
Owner: CITY OF DAYTON
3600 TERMINAL DR STE 300
VANDALIA, OH 45377-1095
Phone 937-885-4121
Manager: BRANDON ELLIS
10550 N SPRINGBORO PIKE
MIAMISBURG, OH 45342-4956
Phone 937-454-8230

Airport Operational Statistics

Aircraft based on the field: 69
Single engine airplanes: 48
Multi engine airplanes: 9
Jet airplanes: 7
Helicopters: 5
    
Aircraft operations: avg 244/day *
48% local general aviation
45% transient general aviation
7% air taxi
<1% military
* for 12-month period ending 26 September 2019

Additional Remarks

RWYS GROSS WEIGHT PER ARPT MGR.
TWY LIGHTS ON SS-SR.
DEER, BIRDS, & OTR WILDLIFE ON & INVOF ARPT.
SURFACE CONDITIONS UNMNT 2030-1200Z++ WKDAYS/ ALL DAY WKENDS/HOL.
FULL POWER MAINTENANCE RUNUPS PROHIBITED IN THE HOLDING APRON AT THE NORTHWEST CORNER OF TWY A BETWEEN THE HOURS OF 0800L TO 1700L MONDAY THRU FRIDAY.

Instrument Procedures

NOTE: All procedures below are presented as PDF files. If you need a reader for these files, you should download the free Adobe Reader.

NOT FOR NAVIGATION. Please procure official charts for flight.
FAA instrument procedures published for use from 16 June 2022 at 0901Z to 14 July 2022 at 0900z.

 
STARs - Standard Terminal Arrivals
DANEI THREE   download (170KB)
 
IAPs - Instrument Approach Procedures
RNAV (GPS) RWY 02   download (240KB)
RNAV (GPS) RWY 20   download (240KB)
LOC RWY 20   download (218KB)
NDB-A   download (179KB)
NOTE: Special Alternate Minimums apply   download (16KB)
NOTE: Special Take-Off Minimums/Departure Procedures apply   download (239KB)

Other nearby airports with instrument procedures:

I68 - Warren County Airport/John Lane Field (8 nm S)
KMWO - Middletown Regional Airport/Hook Field (9 nm SW)
I19 - Greene County/Lewis A Jackson Regional Airport (12 nm NE)
KFFO - Wright-Patterson Air Force Base (16 nm NE)
I66 - Clinton Field Airport (18 nm E)
KDAY - James M Cox Dayton International Airport (19 nm N)
KHAO - Butler County Regional Airport/Hogan Field (19 nm SW)
 
Loc | Ops | Rwys | IFR | FBO | Links
Com | Nav | Svcs | Stats | Notes
Area around KMGY (Dayton-Wright Brothers Airport)
 
Road maps at: MapQuest Bing Google
 
Aerial photo
WARNING: Photo may not be current or correct
Aerial photo of KMGY (Dayton-Wright Brothers Airport)
Photo taken 25-Oct-2011
looking east.

Do you have a better or more recent aerial photo of Dayton-Wright Brothers Airport that you would like to share? If so, please send us your photo.

 
Sectional chart

 
Airport distance calculator
Flying to Dayton-Wright Brothers Airport? Find the distance to fly.

From to KMGY

Sunrise and sunset
Times for 30-Jun-2022
 Local
(UTC-4)
 Zulu
(UTC)
Morning civil twilight05:4109:41
Sunrise06:1410:14
Sunset21:0701:07
Evening civil twilight21:4001:40

Current date and time
Zulu (UTC)  30-Jun-2022 08:18:08
Local (UTC-4)  30-Jun-2022 04:18:08
 
METAR
KMGY 300753Z AUTO 16004KT 10SM CLR 20/09 A3021 RMK AO2 SLP223 T02000089
KI68 
8nm S 
300755Z AUTO 12003KT 10SM CLR 17/12 A3022 RMK AO1 T01730116
KMWO 
9nm SW 
300755Z AUTO 36003KT 10SM CLR 14/14 A3022 RMK AO2 T01390138
KFFO 
16nm NE 
300756Z AUTO 00000KT 10SM CLR 18/12 A3019 RMK AO2 SLP221 T01760116
KDAY 
19nm N 
300756Z 00000KT 10SM CLR 20/09 A3022 RMK AO2 SLP226 T02000094
KHAO 
19nm SW 
300753Z AUTO 00000KT 10SM CLR 14/13 A3022 RMK AO2 SLP229 T01440133
TAF
KFFO 
16nm NE 
300300Z 3003/0109 18006KT 9999 SKC QNH3005INS BECMG 3020/3021 19009KT 9999 FEW060 QNH3004INS BECMG 0104/0105 21012KT 9999 SCT030 BKN060 QNH3002INS TX33/3021Z TN14/3011Z
KDAY 
19nm N 
300527Z 3006/0106 19005KT P6SM SKC FM301500 18006KT P6SM FEW040 FM301800 20008KT P6SM FEW040 FM010000 19006KT P6SM SCT250
NOTAMs
Click for the latest NOTAMs
NOTAMs are issued by the DoD/FAA and will open in a separate window not controlled by AirNav.

 

 
 

FBO, Fuel Providers, and Aircraft Ground Support

  
 Business Name 
 
 Contact 
 
 Services / Description 
 
Fuel Prices
 
Comments
  
 First Flight Aviation
UNICOM 122.80
937-885-5580
937-313-6573
[web site]
[email]
First Flight Aviation is a FAA Certified Repair Station (GA5R-876M) and full service FBO. We are certified for maintenance on Piston, Turboprop and Jet Aircraft. Our objective is to make owning any aircraft the most satisfying experience in aviation. Overnight heated hangar space available!
 
Crew car   FAA-Approved Repair Station   Cirrus  
 
More info about First Flight Aviation
Avfuel
100LL Jet A
FS $7.60 $6.29 
 Updated 28-Jun-2022
 
   3 read write
FS=Full service
Update Fuel Prices
 

Would you like to see your business listed on this page?

 If your business provides an interesting product or service to pilots, flight crews, aircraft, or users of the Dayton-Wright Brothers Airport, you should consider listing it here.  To start the listing process, click on the button below
 
Add a business
 

Other Pages about Dayton-Wright Brothers Airport

Update a link
 
Copyright © AirNav, LLC. All rights reserved. Privacy Policy  Contact